Temp
-12 -11 -11 -11 -11 -12 -13 -12 -13 -13 -13 -12 -13 -13 -13 -13 -13 -13 -13 -13 -14 -13 -14 -13 -14 -13 -13 -13 -13 -14 -14 -14 -14 -14 -15 -15 -16 -16 -16 -17 -17 -17 -18
-13 -12 -12 -10 -12 -12 -13 -12 -13 -13 -12 -13 -12 -13 -13 -13 -13 -13 -13 -13 -13 -14 -14 -13 -14 -13 -13 -13 -14 -14 -14 -15 -14 -14 -15 -16 -17 -17 -17 -17 -17 -18 -18
-13 -13 -13 -10 -10 -10 -13 -12 -12 -12 -13 -13 -13 -13 -13 -13 -13 -12 -13 -14 -14 -14 -13 -14 -14 -13 -13 -14 -14 -15 -15 -15 -15 -15 -15 -16 -16 -17 -18 -17 -18 -18 -18
-13 -13 -13 -11 -11 -11 -12 -13 -14 -13 -13 -13 -13 -13 -12 -13 -12 -13 -12 -13 -14 -14 -13 -14 -13 -13 -14 -14 -14 -15 -15 -15 -15 -15 -16 -17 -17 -18 -18 -18 -19 -18 -19
-13 -13 -12 -12 -12 -11 -11 -12 -13 -13 -13 -13 -13 -13 -12 -13 -13 -13 -14 -14 -14 -14 -14 -14 -14 -14 -14 -14 -15 -15 -15 -15 -15 -16 -16 -17 -18 -18 -18 -18 -18 -19 -19
-13 -13 -13 -12 -12 -12 -12 -13 -13 -13 -13 -13 -13 -13 -12 -13 -13 -14 -14 -14 -14 -14 -14 -14 -14 -14 -15 -15 -16 -16 -15 -15 -15 -16 -17 -17 -18 -18 -19 -18 -19 -19 -19
-14 -14 -13 -12 -13 -13 -12 -13 -14 -13 -13 -13 -13 -13 -13 -14 -15 -15 -14 -15 -14 -14 -14 -14 -14 -15 -16 -16 -16 -16 -16 -16 -16 -17 -17 -18 -18 -19 -19 -19 -19 -19 -20
-14 -13 -13 -13 -13 -13 -13 -13 -13 -13 -13 -13 -13 -13 -13 -14 -15 -15 -15 -15 -14 -14 -14 -14 -14 -15 -15 -16 -16 -16 -16 -16 -17 -18 -18 -19 -19 -19 -19 -19 -19 -20 -20
-14 -13 -14 -13 -13 -13 -13 -13 -13 -13 -13 -13 -13 -13 -14 -14 -14 -15 -15 -15 -15 -15 -14 -14 -15 -15 -16 -16 -16 -16 -17 -17 -18 -19 -19 -19 -19 -19 -19 -19 -19 -20 -20
-14 -14 -14 -14 -14 -13 -14 -13 -13 -13 -13 -14 -14 -14 -14 -15 -15 -15 -15 -15 -15 -14 -15 -16 -16 -16 -16 -16 -16 -17 -18 -18 -19 -19 -18 -19 -19 -19 -19 -19 -20 -20 -20
-15 -15 -14 -14 -14 -14 -14 -14 -13 -13 -14 -14 -14 -14 -14 -15 -15 -15 -15 -15 -14 -14 -15 -16 -16 -17 -17 -17 -17 -18 -18 -19 -19 -18 -19 -19 -19 -19 -19 -20 -20 -20 -20
-15 -14 -14 -14 -14 -14 -14 -13 -13 -14 -14 -14 -14 -15 -15 -15 -15 -15 -15 -15 -15 -15 -16 -16 -17 -17 -17 -17 -18 -19 -19 -19 -19 -19 -19 -19 -20 -20 -20 -20 -20 -20 -20
-15 -14 -14 -14 -14 -14 -13 -13 -14 -14 -14 -14 -15 -15 -15 -15 -15 -15 -15 -15 -15 -16 -16 -16 -17 -18 -18 -19 -19 -19 -19 -19 -19 -19 -20 -20 -20 -21 -20 -20 -20 -20 -20
-15 -14 -14 -14 -14 -14 -14 -14 -14 -14 -14 -15 -15 -15 -15 -15 -15 -15 -15 -16 -16 -16 -16 -17 -18 -19 -18 -19 -19 -19 -19 -19 -20 -20 -20 -20 -20 -20 -20 -20 -20 -20 -19
-15 -15 -15 -15 -15 -14 -14 -14 -14 -14 -15 -15 -15 -15 -15 -15 -15 -15 -16 -16 -16 -16 -17 -17 -18 -20 -19 -19 -19 -19 -19 -19 -20 -20 -20 -20 -20 -20 -19 -19 -19 -19 -19
-15 -15 -15 -14 -15 -14 -14 -14 -14 -15 -16 -15 -16 -15 -15 -15 -15 -16 -16 -16 -17 -18 -18 -19 -20 -20 -19 -19 -19 -19 -19 -19 -19 -19 -20 -20 -20 -19 -19 -19 -19 -19 -19
-15 -15 -15 -15 -15 -14 -14 -14 -15 -16 -15 -16 -15 -15 -16 -16 -15 -16 -17 -17 -18 -19 -20 -21 -21 -20 -20 -19 -19 -19 -19 -19 -19 -19 -20 -20 -19 -19 -19 -19 -19 -19 -19
-15 -15 -15 -14 -15 -15 -15 -15 -16 -16 -15 -15 -16 -16 -16 -16 -16 -16 -17 -18 -19 -20 -21 -20 -20 -20 -20 -20 -20 -19 -19 -19 -19 -19 -19 -20 -19 -19 -19 -19 -19 -19 -19
-15 -16 -15 -15 -15 -15 -16 -16 -16 -16 -16 -16 -16 -16 -16 -16 -16 -17 -18 -19 -20 -21 -20 -20 -20 -20 -20 -20 -19 -19 -19 -19 -19 -20 -20 -19 -19 -19 -19 -19 -18 -18 -18
-15 -15 -15 -15 -15 -15 -16 -16 -16 -16 -16 -16 -16 -16 -16 -16 -17 -18 -19 -19 -20 -20 -20 -21 -20 -20 -20 -20 -20 -20 -19 -20 -20 -20 -20 -20 -20 -19 -18 -18 -18 -18 -18
-15 -14 -15 -15 -15 -16 -16 -16 -16 -16 -16 -16 -16 -16 -16 -17 -18 -19 -19 -19 -19 -20 -20 -20 -21 -21 -21 -20 -20 -20 -20 -20 -20 -20 -20 -20 -20 -19 -18 -18 -18 -18 -17
-14 -15 -15 -16 -16 -16 -16 -16 -16 -16 -16 -16 -16 -16 -16 -17 -18 -19 -19 -20 -20 -20 -20 -20 -20 -20 -20 -20 -20 -20 -20 -20 -19 -20 -19 -19 -19 -18 -18 -18 -18 -17 -17
-15 -15 -16 -16 -16 -16 -16 -16 -16 -16 -16 -16 -16 -16 -17 -18 -19 -19 -19 -20 -20 -20 -20 -20 -20 -20 -20 -20 -20 -20 -20 -20 -20 -19 -19 -19 -19 -18 -18 -18 -18 -18 -17
-15 -16 -16 -15 -16 -16 -16 -16 -16 -16 -16 -16 -16 -17 -18 -18 -19 -19 -19 -20 -19 -20 -20 -20 -19 -20 -20 -20 -20 -20 -20 -20 -20 -19 -19 -19 -18 -18 -18 -18 -18 -17 -17
-15 -15 -15 -15 -15 -15 -16 -16 -16 -16 -16 -16 -16 -17 -18 -18 -18 -19 -19 -20 -20 -20 -20 -20 -20 -19 -19 -20 -20 -20 -20 -20 -20 -19 -19 -19 -18 -18 -18 -18 -18 -17 -17
-15 -15 -15 -15 -15 -16 -16 -16 -16 -16 -16 -16 -17 -17 -18 -18 -18 -19 -19 -19 -20 -19 -19 -19 -19 -19 -20 -20 -20 -20 -20 -19 -19 -19 -19 -19 -18 -18 -18 -18 -18 -18 -17
Height
5799 5791 5783 5776 5774 5776 5775 5773 5772 5770 5767 5762 5760 5757 5753 5748 5742 5735 5727 5718 5711 5703 5695 5688 5680 5672 5665 5656 5646 5636 5627 5620 5615 5610 5603 5596 5589 5582 5576 5571 5565 5560 5555
5796 5782 5757 5768 5774 5775 5768 5764 5762 5759 5757 5757 5754 5750 5745 5739 5731 5724 5716 5708 5700 5692 5684 5676 5669 5661 5652 5641 5631 5623 5614 5606 5601 5595 5589 5583 5576 5569 5563 5558 5551 5547 5543
5783 5776 5767 5767 5764 5757 5746 5753 5752 5752 5751 5750 5746 5740 5735 5729 5723 5715 5706 5696 5688 5681 5673 5666 5658 5649 5638 5628 5617 5609 5602 5595 5587 5580 5574 5569 5562 5555 5550 5544 5538 5534 5532
5775 5767 5764 5764 5758 5752 5749 5746 5747 5746 5745 5742 5737 5731 5726 5720 5713 5706 5696 5688 5680 5671 5664 5656 5647 5636 5624 5614 5605 5597 5589 5583 5576 5569 5562 5556 5549 5541 5536 5532 5527 5524 5522
5771 5764 5762 5760 5754 5748 5744 5740 5740 5740 5737 5733 5729 5723 5716 5711 5705 5697 5687 5679 5671 5662 5654 5645 5634 5622 5610 5599 5591 5585 5578 5570 5564 5557 5550 5543 5537 5529 5524 5520 5517 5514 5512
5758 5757 5756 5754 5751 5745 5739 5734 5734 5734 5730 5727 5721 5714 5708 5702 5693 5684 5677 5670 5662 5653 5644 5633 5620 5608 5597 5588 5580 5573 5564 5557 5550 5542 5535 5529 5522 5518 5513 5510 5507 5505 5504
5753 5750 5749 5748 5744 5739 5737 5732 5729 5728 5725 5719 5712 5708 5700 5691 5682 5675 5669 5662 5652 5641 5631 5619 5606 5595 5587 5579 5571 5561 5553 5545 5536 5529 5522 5516 5512 5508 5505 5501 5499 5498 5497
5744 5742 5742 5741 5737 5734 5732 5729 5726 5722 5717 5710 5705 5698 5691 5682 5675 5668 5661 5652 5641 5629 5617 5605 5595 5585 5576 5569 5560 5550 5541 5532 5524 5517 5510 5506 5502 5499 5496 5494 5494 5493 5493
5737 5736 5734 5732 5730 5728 5725 5722 5718 5714 5708 5702 5695 5689 5682 5675 5667 5660 5652 5641 5630 5618 5605 5593 5582 5573 5564 5556 5547 5538 5529 5520 5512 5506 5501 5497 5493 5491 5489 5490 5490 5489 5490
5727 5727 5725 5723 5721 5720 5716 5713 5709 5705 5699 5693 5687 5680 5674 5667 5659 5652 5642 5630 5618 5606 5592 5580 5570 5562 5553 5543 5534 5525 5517 5509 5502 5498 5494 5489 5486 5485 5486 5487 5487 5487 5489
5718 5717 5716 5714 5712 5709 5707 5703 5700 5697 5692 5685 5679 5673 5667 5659 5650 5641 5630 5617 5605 5592 5580 5570 5559 5549 5539 5530 5521 5513 5506 5501 5497 5493 5488 5485 5484 5484 5484 5484 5485 5487 5489
5710 5709 5708 5708 5707 5704 5701 5698 5695 5690 5685 5678 5672 5665 5658 5650 5640 5629 5617 5605 5592 5580 5569 5558 5548 5538 5528 5518 5510 5504 5500 5496 5492 5489 5486 5484 5483 5483 5483 5484 5486 5488 5490
5701 5702 5703 5703 5701 5698 5695 5692 5688 5684 5678 5670 5664 5657 5650 5640 5629 5617 5605 5593 5580 5568 5558 5547 5536 5526 5517 5509 5503 5499 5495 5492 5489 5487 5486 5485 5484 5484 5485 5486 5488 5491 5493
5694 5695 5696 5695 5695 5693 5689 5686 5682 5676 5671 5664 5657 5650 5641 5631 5620 5609 5596 5583 5571 5558 5546 5534 5525 5518 5511 5504 5499 5496 5492 5489 5487 5487 5487 5486 5486 5487 5488 5491 5493 5496 5499
5688 5690 5690 5689 5687 5686 5684 5680 5676 5671 5665 5658 5650 5643 5634 5624 5613 5601 5587 5574 5561 5547 5534 5524 5515 5509 5504 5500 5497 5494 5491 5489 5488 5489 5489 5488 5490 5492 5494 5496 5500 5503 5506
5683 5684 5683 5679 5674 5678 5678 5675 5670 5665 5659 5652 5645 5637 5627 5616 5604 5592 5577 5564 5550 5537 5526 5515 5507 5503 5499 5497 5495 5494 5492 5492 5492 5492 5492 5493 5495 5498 5500 5504 5507 5512 5515
5678 5678 5677 5677 5677 5676 5673 5670 5666 5660 5653 5647 5640 5631 5621 5610 5597 5582 5569 5556 5543 5532 5520 5510 5505 5501 5498 5496 5496 5496 5496 5497 5496 5496 5498 5500 5502 5504 5508 5511 5515 5519 5523
5675 5675 5675 5672 5673 5670 5668 5665 5660 5655 5649 5643 5635 5625 5615 5602 5589 5576 5564 5551 5540 5528 5520 5513 5507 5503 5501 5499 5499 5500 5500 5501 5501 5503 5505 5506 5509 5512 5515 5519 5524 5527 5530
5673 5674 5671 5672 5670 5667 5665 5661 5657 5652 5645 5638 5629 5619 5608 5595 5585 5573 5561 5552 5540 5531 5524 5517 5512 5509 5506 5505 5505 5505 5506 5507 5509 5511 5513 5515 5518 5521 5524 5529 5533 5536 5538
5671 5672 5671 5670 5668 5664 5661 5658 5654 5648 5641 5634 5625 5614 5602 5592 5581 5571 5563 5553 5544 5537 5530 5524 5519 5515 5513 5512 5511 5512 5513 5515 5517 5520 5522 5525 5527 5530 5533 5538 5541 5544 5545
5669 5669 5669 5667 5664 5662 5660 5656 5651 5645 5638 5630 5621 5610 5600 5590 5581 5572 5564 5556 5549 5543 5537 5533 5528 5524 5522 5520 5520 5521 5522 5524 5527 5530 5533 5535 5537 5540 5543 5547 5549 5551 5554
5668 5668 5667 5665 5663 5661 5658 5654 5649 5643 5635 5627 5618 5608 5598 5589 5580 5573 5566 5559 5554 5549 5545 5541 5537 5533 5532 5530 5530 5531 5532 5534 5537 5540 5543 5545 5547 5550 5553 5555 5557 5559 5561
5667 5667 5666 5664 5661 5660 5657 5652 5647 5640 5633 5625 5616 5607 5598 5589 5581 5574 5567 5562 5558 5555 5551 5548 5544 5542 5540 5540 5540 5540 5542 5545 5548 5551 5553 5555 5556 5559 5561 5564 5566 5568 5569
5666 5667 5665 5663 5662 5659 5655 5651 5645 5639 5632 5625 5616 5607 5599 5591 5582 5575 5569 5565 5563 5560 5557 5555 5553 5550 5549 5549 5549 5550 5552 5555 5557 5560 5562 5564 5565 5567 5570 5572 5573 5575 5576
5666 5665 5664 5664 5662 5659 5655 5651 5645 5639 5632 5625 5615 5609 5601 5593 5585 5578 5573 5570 5568 5566 5564 5562 5561 5559 5557 5557 5558 5559 5561 5564 5566 5569 5571 5572 5574 5576 5578 5579 5580 5582 5583
5665 5664 5664 5664 5661 5659 5655 5651 5646 5640 5634 5626 5617 5612 5605 5597 5589 5583 5579 5576 5574 5572 5571 5570 5568 5567 5566 5566 5567 5567 5569 5572 5574 5577 5579 5580 5581 5584 5585 5586 5587 5589 5591
Wind_Speed
43 45 40 35 33 30 35 35 33 33 31 32 32 37 42 46 51 54 54 55 55 50 59 66 56 55 56 63 68 65 58 52 45 46 49 50 45 47 46 44 44 45 41
48 57 48 34 35 42 39 36 36 34 34 30 35 39 44 47 48 48 55 56 52 54 62 57 50 55 62 68 68 60 54 49 47 47 50 49 45 46 46 46 45 41 37
48 54 58 47 56 65 36 35 34 29 31 34 38 40 43 47 51 47 52 51 55 52 47 49 54 62 67 64 59 57 55 49 51 52 54 52 50 48 46 47 43 39 35
47 49 50 52 54 46 29 26 25 28 33 36 38 40 42 44 43 46 45 42 40 44 49 54 60 64 63 61 58 53 46 49 51 52 52 50 49 49 48 43 38 35 31
48 46 47 44 42 45 43 30 26 27 31 35 38 43 45 44 48 48 44 41 43 47 53 58 63 64 61 58 54 47 49 50 52 54 53 49 46 46 41 35 34 30 28
36 39 41 40 39 38 37 25 23 24 30 34 40 41 46 45 48 43 42 44 48 51 56 62 65 64 57 49 47 50 51 52 54 56 51 46 43 38 34 32 28 24 22
39 39 39 37 36 34 31 27 16 27 33 36 38 39 44 43 43 42 45 46 51 55 59 64 67 62 53 50 49 47 50 55 54 52 47 41 35 31 29 27 21 19 18
38 41 39 32 31 32 31 28 26 33 36 36 36 39 38 37 38 40 46 51 55 60 62 65 66 54 50 50 52 52 51 52 51 45 38 33 28 27 25 19 17 16 12
41 40 32 29 29 28 30 31 32 34 35 35 36 39 40 40 40 44 48 53 58 61 64 66 56 50 49 51 51 52 51 50 42 35 30 27 26 24 18 13 12 10 7
41 37 33 27 26 25 28 30 32 34 34 34 36 39 40 40 42 47 52 57 60 64 66 55 50 50 50 51 51 51 49 39 32 28 26 23 15 11 10 8 6 4 4
36 33 30 25 25 26 28 29 33 34 33 34 38 40 42 41 44 50 54 58 63 66 56 52 51 51 53 53 52 48 35 28 25 23 19 13 8 6 5 3 3 4 3
27 27 24 21 23 25 26 29 31 31 33 37 38 41 42 43 47 53 56 64 66 59 55 54 54 54 51 48 41 30 26 23 22 16 10 8 4 2 3 5 4 5 10
20 21 20 19 20 25 25 27 28 30 35 38 40 41 42 45 50 55 61 66 63 57 56 57 54 48 42 34 27 24 20 19 12 7 4 5 3 5 6 8 13 15 19
18 19 18 19 21 24 26 25 27 33 37 39 38 40 42 47 53 57 64 62 58 58 58 55 50 41 35 27 23 18 16 11 6 3 3 7 8 9 13 16 19 24 26
16 18 17 18 19 22 22 23 29 35 38 36 37 39 43 49 52 60 62 58 58 57 55 55 49 34 28 21 15 13 8 9 8 7 8 9 12 15 16 21 27 30 33
15 13 12 18 16 18 22 27 31 36 32 34 37 40 46 50 55 63 58 57 55 56 55 50 35 24 20 13 10 9 9 9 10 10 11 14 16 17 20 29 31 35 30
11 8 14 13 14 18 21 28 32 30 32 33 36 41 46 54 60 60 57 53 53 53 46 29 22 19 13 10 9 11 11 12 13 14 17 17 18 22 30 32 35 33 27
7 11 14 20 16 18 24 29 29 29 30 33 38 44 49 54 63 56 51 50 51 41 28 26 22 17 15 13 14 11 11 15 16 19 18 21 28 30 31 33 35 29 26
10 11 14 12 16 19 24 23 25 26 30 35 40 45 52 59 56 49 46 47 38 31 28 25 21 16 16 15 12 14 17 18 21 21 27 29 29 29 30 35 32 26 23
10 9 8 11 14 19 21 24 24 27 32 36 41 48 51 57 46 43 42 37 32 29 27 26 23 21 19 19 20 20 20 24 25 30 32 31 30 30 33 33 27 21 23
7 8 10 13 15 19 24 22 25 29 32 36 43 48 55 45 42 37 36 28 26 24 25 24 24 23 23 21 22 25 26 27 33 37 36 34 31 33 33 27 22 27 26
2 6 9 14 19 18 18 22 26 29 32 38 44 49 46 39 38 32 31 24 23 22 22 24 24 21 22 23 25 26 26 33 38 35 32 31 31 30 27 28 28 25 23
3 5 11 11 14 16 20 23 25 28 33 38 43 45 37 38 35 29 25 20 21 19 20 22 24 23 22 23 24 25 28 34 36 33 31 31 28 29 30 30 27 23 22
8 8 7 12 14 18 22 23 26 31 34 38 46 34 37 36 30 28 22 19 18 19 20 21 22 22 21 21 23 25 31 32 34 30 29 28 27 27 26 23 21 21 22
4 7 10 12 14 18 20 23 28 30 32 37 38 31 37 33 30 27 23 20 17 18 21 22 22 23 22 23 25 30 30 32 31 27 26 27 25 26 25 23 21 23 24
4 7 10 10 13 16 20 25 29 29 32 38 32 29 34 30 29 26 21 22 19 17 18 20 20 22 23 24 25 27 29 31 29 27 24 24 24 26 23 24 24 24 22
Wind_Direction
296 287 284 270 271 275 273 273 280 285 292 294 307 309 313 314 311 311 310 309 310 310 315 314 307 311 312 310 310 310 308 305 302 308 310 308 306 305 306 303 299 298 295
304 302 305 292 328 301 272 267 277 282 289 304 304 308 308 311 311 311 315 310 307 306 311 309 311 311 311 310 310 309 305 304 306 311 312 312 309 307 306 303 301 298 295
308 308 312 324 320 327 265 265 271 289 303 300 301 306 309 308 312 315 318 314 309 311 313 314 314 313 310 310 309 309 308 305 310 312 313 312 310 306 305 301 300 297 292
305 308 313 319 330 327 294 267 277 286 292 299 304 306 309 307 314 313 317 318 318 316 316 317 315 313 313 310 309 308 306 306 307 309 312 310 307 302 298 297 298 294 288
298 300 306 316 325 321 320 285 270 279 292 297 303 307 304 304 312 310 311 314 315 318 316 314 315 317 315 313 311 309 306 306 308 312 313 313 304 298 300 299 299 290 286
294 302 307 312 317 322 329 274 267 285 295 300 306 302 311 306 306 310 312 317 318 313 313 316 320 319 318 313 310 308 309 309 312 313 315 312 306 304 300 299 297 286 283
297 298 308 312 316 318 331 317 309 307 307 301 309 313 313 311 311 313 312 314 317 317 315 319 321 320 314 313 310 311 312 313 315 316 315 309 307 300 302 302 290 283 279
296 301 309 308 306 311 309 313 303 304 304 306 309 316 315 318 313 314 316 317 318 319 319 320 318 313 312 310 312 315 317 317 320 315 311 309 303 304 303 295 278 284 274
287 295 306 307 308 305 300 305 301 305 307 314 317 318 316 314 314 315 316 320 321 320 320 318 317 315 314 314 318 320 319 320 318 314 314 308 302 301 296 284 285 278 249
290 298 307 309 309 299 292 295 299 306 313 320 319 314 314 316 315 317 320 323 322 321 321 319 317 316 316 319 322 321 322 320 318 319 316 316 316 304 289 285 277 221 194
292 295 301 304 307 297 295 297 302 309 315 318 317 315 319 317 318 322 323 325 325 322 322 320 320 321 323 324 322 323 322 321 322 322 320 326 324 304 286 247 185 176 176
289 294 294 302 303 297 295 298 305 313 317 317 316 319 321 320 322 324 325 327 327 326 325 325 326 324 323 324 326 326 325 324 325 324 335 347 357 339 144 137 137 129 130
284 286 290 287 289 298 303 305 309 317 318 320 317 319 320 324 326 328 329 328 328 328 328 327 327 329 330 331 330 328 326 326 331 339 12 28 60 111 107 111 116 118 118
292 289 287 280 286 301 307 306 319 319 320 318 320 322 326 328 329 329 329 328 328 329 330 331 332 334 332 331 332 332 332 344 6 55 73 62 84 97 108 114 118 120 119
298 294 289 277 284 302 300 314 317 316 316 320 323 327 330 330 329 330 330 330 332 332 333 331 331 332 334 336 342 349 16 43 70 84 80 84 99 107 111 117 123 121 119
307 293 292 281 309 304 306 315 316 315 322 327 330 333 331 330 332 333 334 336 337 336 334 334 336 338 341 354 16 43 64 74 81 83 87 105 108 112 117 125 122 123 116
290 275 272 253 293 300 311 313 313 321 328 332 333 332 333 335 336 339 338 341 340 338 341 350 357 1 11 21 65 81 75 81 80 86 106 103 108 115 125 124 127 121 107
274 265 289 309 304 316 314 312 317 325 330 335 334 335 336 336 341 341 344 345 344 350 5 8 15 26 40 61 92 84 80 88 92 106 102 107 115 123 125 128 130 118 107
272 281 267 295 311 312 316 324 328 332 337 337 335 338 338 342 342 345 350 349 1 14 14 21 28 40 51 72 78 87 100 97 105 103 109 112 117 120 123 131 126 112 103
277 303 304 313 310 319 320 327 334 339 341 336 339 341 343 344 347 352 353 2 14 19 30 34 44 56 71 79 87 95 97 105 106 112 111 112 112 117 124 129 120 105 113
274 312 322 312 309 310 319 335 343 343 337 341 344 346 343 347 351 355 359 12 18 31 39 44 46 65 73 80 88 97 104 107 116 117 113 109 110 116 125 125 113 117 118
254 315 323 316 320 328 344 346 346 341 345 350 349 346 348 353 355 357 5 18 27 36 45 47 50 64 77 83 94 100 105 118 123 117 109 102 109 114 113 112 111 112 116
222 321 334 1 1 353 353 351 346 352 355 352 351 351 357 358 357 0 14 27 32 41 47 53 58 70 78 89 94 98 110 122 123 117 107 102 109 116 117 112 110 107 105
229 313 336 350 357 1 356 350 359 2 357 354 355 4 4 2 2 7 24 37 43 51 52 60 66 74 83 90 96 105 118 123 128 121 108 98 111 118 121 116 110 109 106
244 7 348 355 0 3 354 2 8 4 -0 0 5 9 9 8 12 22 35 48 57 64 60 64 72 72 81 94 105 115 122 128 129 123 115 104 102 119 114 113 112 114 108
223 316 335 346 3 360 1 9 9 5 3 7 11 13 12 18 24 32 47 56 64 71 65 63 71 75 86 102 112 120 127 131 130 125 119 102 105 119 113 112 112 114 105